Miscellaneous Local Product
Issued by NWS Hastings, NE

Home | Current Version | Previous Version | Text Only | Print | Product List | Glossary Off
Versions: 1 2 3 4 5 6 7 8 9 10 11 12 13 14 15 16 17 18 19 20 21 22 23 24 25 26 27 28 29 30 31 32 33 34 35 36 37 38 39 40 41 42 43 44 45 46 47 48 49 50

000
AXUS43 KGID 220702
MISGRI

GID CWA HOURLY WEATHER ROUNDUP
NATIONAL WEATHER SERVICE HASTINGS NE
100 AM CST SAT NOV 22 2014

NOTE: "FAIR" INDICATES FEW OR NO CLOUDS BELOW 12,000 FEET WITH NO
SIGNIFICANT WEATHER AND/OR OBSTRUCTIONS TO VISIBILITY.

...SOUTH CENTRAL NEBRASKA...

CITY           SKY/WX    TMP DP  RH WIND       PRES   REMARKS
GRAND ISLAND   CLOUDY    37  35  92 SW12      29.93F FOG     WCI  29
HASTINGS       CLOUDY    36  34  92 S9        29.93F FOG     WCI  29
KEARNEY        CLEAR     32  28  86 S10       29.93F WCI  24
ORD            CLEAR     31  27  85 S5        29.88F WCI  26
YORK           CLOUDY    36  34  93 SW10      29.94F FOG     WCI  28
AURORA         CLOUDY    36  35  96 SW9       29.94F FOG     WCI  29
LEXINGTON      CLEAR     35  34  94 SW7       29.91F FOG     WCI  29
HOLDREGE       CLEAR     32  31  93 S9        29.93S WCI  25
HEBRON         CLOUDY    37  34  90 SW6       29.98F FOG     WCI  32

...NEBRASKA PANHANDLE...

CITY           SKY/WX    TMP DP  RH WIND       PRES   REMARKS
CHADRON        CLEAR     24  21  88 SW3       29.82F
ALLIANCE       CLEAR     22  16  78 W3        29.85F
SCOTTSBLUFF    CLEAR     23  17  78 N5        29.86F WCI  17
SIDNEY         CLEAR     27  19  72 SW12      29.89F WCI  17

...WESTERN AND NORTH CENTRAL NEBRASKA...

CITY           SKY/WX    TMP DP  RH WIND       PRES   REMARKS
VALENTINE      CLEAR     25  22  88 SW8       29.82F WCI  16
AINSWORTH      CLEAR     32  26  80 SW8       29.82F WCI  25
ONEILL         CLEAR     34  31  88 SW8       29.85S WCI  27
BROKEN BOW     CLEAR     28  27  96 CALM      29.87F
IMPERIAL       CLEAR     29  18  63 W9        29.90F WCI  20
NORTH PLATTE   CLEAR     22  20  92 CALM      29.88F
MCCOOK         CLEAR     29  28  96 SW7       29.90F WCI  22

...EASTERN NEBRASKA...

CITY           SKY/WX    TMP DP  RH WIND       PRES   REMARKS
NORFOLK        CLOUDY    37  34  89 SW12      29.89F WCI  29
SO SIOUX CITY  CLOUDY    38  34  85 S7        29.92F FOG     WCI  33
TEKAMAH        CLOUDY    37  34  89 S14       29.94F FOG     WCI  28
COLUMBUS       CLOUDY    36  32  87 SW8       29.94F WCI  29
ALBION         CLEAR     33  29  85 S7        29.90F WCI  27
OMAHA EPPLEY   CLOUDY    37  35  92 S9        29.98S FOG     WCI  30
OFFUTT AFB     CLOUDY    36  35  94 S7        29.97F FOG     WCI  31
MILLARD        CLOUDY    37  35  93 S5        29.98S FOG     WCI  33
LINCOLN        CLOUDY    37  34  89 SW7       29.98F FOG     WCI  32
NEBRASKA CITY  CLOUDY    36  36 100 S8        29.98F FOG     WCI  29
BEATRICE       CLOUDY    37  37 100 S6        29.98F FOG     WCI  32
FALLS CITY     CLOUDY    37  37 100 S6        30.00F FOG     WCI  32

...NORTHERN KANSAS...

CITY           SKY/WX    TMP DP  RH WIND       PRES   REMARKS
GOODLAND       CLEAR     32  19  58 SW12      29.94S WCI  23
HILL CITY      FOG       29  27  92 CALM      29.95F VSB 1
NORTON         SUNNY     28  25  86 SW5       29.92F FOG     WCI  23
PHILLIPSBURG   CLEAR     30  30 100 SE6       29.96F FOG     WCI  24
SMITH CENTER   MOCLDY    34  30  86 S5        29.98S FOG     WCI  30
BELOIT         CLOUDY    37  37 100 S3        29.99F
HAYS           CLOUDY    34  27  75 SW6       29.97F VSB 1   WCI  29
RUSSELL        MOCLDY    36  35  96 S13       29.96F FOG     WCI  27
CONCORDIA      CLOUDY    38  38 100 S9        29.99F FOG     WCI  31
SALINA         CLOUDY    42  40  92 S13       30.02F
TOPEKA         CLOUDY    42  41  96 W7        30.03R FOG



USA.gov is the U.S. government's official web portal to all federal, state and local government web resources and services.